GW3945 Weather Reports


Display with metric or nautical units.
time (UTC)temp
F
wind
direction
speed
MPH
gust
MPH
rain 1hr
in
rain 24hr
in
rain mn
in
humidity
%
barometer
mb
20260503000447 51 177 0.0 0.0 0.00 0.00 0.00 80 1015.9
20260502235944 51 169 0.0 0.0 0.00 0.00 0.00 81 1016.1
20260502235441 51 182 0.0 0.0 0.00 0.00 0.00 80 1015.9
20260502234938 51 215 1.0 2.0 0.00 0.00 0.00 81 1015.7
20260502234434 51 233 3.0 3.0 0.00 0.00 0.00 80 1015.6
20260502233932 51 245 0.0 0.0 0.00 0.00 0.00 82 1015.7
20260502233427 51 212 1.0 1.0 0.00 0.00 0.00 81 1015.5
20260502232925 51 218 1.0 2.0 0.00 0.00 0.00 81 1015.6
20260502232421 52 274 1.0 1.0 0.00 0.00 0.00 81 1015.5
20260502231918 52 170 0.0 1.0 0.00 0.00 0.00 80 1015.6
20260502231415 52 171 0.0 0.0 0.00 0.00 0.00 80 1015.7
20260502230913 52 138 0.0 1.0 0.00 0.00 0.00 80 1015.7
20260502230411 52 118 0.0 1.0 0.00 0.00 0.00 78 1015.7
20260502225909 53 306 5.0 7.0 0.00 0.00 0.00 76 1015.6
20260502225404 54 255 3.0 3.0 0.00 0.00 0.00 73 1015.4
20260502224902 54 264 0.0 0.0 0.00 0.00 0.00 73 1015.8
20260502224357 54 352 0.0 0.0 0.00 0.00 0.00 72 1015.7
20260502223855 54 167 0.0 0.0 0.00 0.00 0.00 72 1015.6
20260502223353 54 169 0.0 0.0 0.00 0.00 0.00 75 1015.3
20260502222850 54 160 0.0 0.0 0.00 0.00 0.00 73 1015.4
20260502222348 54 140 0.0 0.0 0.00 0.00 0.00 71 1015.2
20260502221843 55 158 0.0 0.0 0.00 0.00 0.00 70 1015.0
20260502221340 55 177 0.0 0.0 0.00 0.00 0.00 68 1015.1
20260502220837 56 176 0.0 0.0 0.00 0.00 0.00 66 1015.0
20260502220333 56 168 1.0 5.0 0.00 0.00 0.00 64 1014.7
20260502215829 58 161 0.0 0.0 0.00 0.00 0.00 62 1014.6
20260502215327 59 4 0.0 1.0 0.00 0.00 0.00 60 1014.6
20260502214824 57 160 0.0 0.0 0.00 0.00 0.00 59 1014.6
20260502214320 59 332 0.0 0.0 0.00 0.00 0.00 54 1014.3
20260502213818 60 312 1.0 1.0 0.00 0.00 0.00 49 1013.9
20260502213315 60 313 0.0 0.0 0.00 0.00 0.00 48 1013.9
20260502212814 60 198 0.0 0.0 0.00 0.00 0.00 47 1013.6
20260502212311 61 265 0.0 0.0 0.00 0.00 0.00 49 1013.5
20260502211808 61 167 0.0 0.0 0.00 0.00 0.00 47 1013.5
20260502211258 61 242 0.0 0.0 0.00 0.00 0.00 46 1013.5
20260502210756 61 221 0.0 0.0 0.00 0.00 0.00 47 1013.5
20260502210253 61 224 0.0 0.0 0.00 0.00 0.00 46 1013.3
20260502205750 60 169 0.0 0.0 0.00 0.00 0.00 50 1013.4
20260502205246 61 172 0.0 0.0 0.00 0.00 0.00 49 1013.4
20260502204744 61 183 0.0 0.0 0.00 0.00 0.00 46 1013.5
20260502204241 61 229 3.0 3.0 0.00 0.00 0.00 45 1013.7
20260502203738 61 222 0.0 0.0 0.00 0.00 0.00 44 1013.6
20260502203236 62 178 0.0 0.0 0.00 0.00 0.00 44 1013.5
20260502202730 62 186 0.0 0.0 0.00 0.00 0.00 41 1013.5
20260502202229 64 237 0.0 0.0 0.00 0.00 0.00 40 1013.6
20260502201726 65 190 0.0 0.0 0.00 0.00 0.00 42 1013.8
20260502201222 64 219 3.0 3.0 0.00 0.00 0.00 42 1013.8
20260502200718 62 171 0.0 0.0 0.00 0.00 0.00 45 1013.8
20260502200215 62 220 0.0 2.0 0.00 0.00 0.00 45 1014.0
20260502195713 62 169 0.0 0.0 0.00 0.00 0.00 46 1014.0
20260502195209 62 169 0.0 0.0 0.00 0.00 0.00 47 1014.0
20260502194706 61 189 0.0 0.0 0.00 0.00 0.00 43 1014.3
20260502194203 61 232 0.0 0.0 0.00 0.00 0.00 43 1014.4
20260502193659 62 201 0.0 0.0 0.00 0.00 0.00 42 1014.4
20260502193156 62 165 0.0 0.0 0.00 0.00 0.00 43 1014.2
20260502192651 62 309 0.0 2.0 0.00 0.00 0.00 43 1014.3
20260502192149 62 200 0.0 0.0 0.00 0.00 0.00 42 1014.1
20260502191645 62 169 0.0 0.0 0.00 0.00 0.00 43 1014.3
20260502191143 62 194 0.0 0.0 0.00 0.00 0.00 44 1014.4
20260502190640 62 281 0.0 1.0 0.00 0.00 0.00 43 1014.5
20260502190138 62 266 0.0 0.0 0.00 0.00 0.00 45 1014.5
20260502185632 61 190 0.0 0.0 0.00 0.00 0.00 43 1014.4
20260502185130 62 185 0.0 0.0 0.00 0.00 0.00 44 1014.5
20260502184626 62 140 0.0 0.0 0.00 0.00 0.00 44 1014.6
20260502184121 61 144 0.0 0.0 0.00 0.00 0.00 44 1014.6
20260502183618 61 289 0.0 0.0 0.00 0.00 0.00 43 1015.0
20260502183114 62 178 0.0 0.0 0.00 0.00 0.00 42 1014.8
20260502182609 62 193 0.0 0.0 0.00 0.00 0.00 45 1014.6
20260502182105 62 181 1.0 1.0 0.00 0.00 0.00 43 1014.9
20260502181603 62 299 1.0 2.0 0.00 0.00 0.00 43 1014.8
20260502181102 61 237 0.0 0.0 0.00 0.00 0.00 43 1015.0
20260502180558 62 214 0.0 1.0 0.00 0.00 0.00 42 1015.1
20260502170518 61 200 0.0 0.0 0.00 0.00 0.00 44 1015.2
20260502164002 61 208 1.0 1.0 0.00 0.00 0.00 45 1015.5
20260502163457 60 168 0.0 0.0 0.00 0.00 0.00 46 1015.6
20260502162954 60 172 0.0 0.0 0.00 0.00 0.00 48 1015.4
20260502162451 59 176 0.0 0.0 0.00 0.00 0.00 43 1015.5
20260502161948 59 216 0.0 0.0 0.00 0.00 0.00 44 1015.6
20260502161445 59 164 0.0 1.0 0.00 0.00 0.00 46 1016.0
20260502160943 59 281 2.0 3.0 0.00 0.00 0.00 45 1015.7
20260502160441 60 148 0.0 0.0 0.00 0.00 0.00 46 1016.0
20260502151924 58 243 1.0 1.0 0.00 0.00 0.00 48 1015.8
20260502151420 58 223 0.0 0.0 0.00 0.00 0.00 49 1015.9
20260502150918 58 166 0.0 0.0 0.00 0.00 0.00 48 1015.9
20260502150414 58 220 0.0 0.0 0.00 0.00 0.00 48 1015.8
20260502130300 49 197 0.0 0.0 0.00 0.00 0.00 84 1015.5
20260502123746 47 200 0.0 0.0 0.00 0.00 0.00 83 1015.5
20260502123242 46 200 0.0 0.0 0.00 0.00 0.00 82 1015.3
20260502122739 46 206 0.0 0.0 0.00 0.00 0.00 82 1015.3
20260502122235 45 211 0.0 0.0 0.00 0.00 0.00 82 1015.4
20260502121734 45 219 0.0 0.0 0.00 0.00 0.00 82 1015.5
20260502121231 45 229 0.0 0.0 0.00 0.00 0.00 82 1015.3
20260502120727 44 199 0.0 0.0 0.00 0.00 0.00 83 1015.3
20260502120224 44 199 0.0 0.0 0.00 0.00 0.00 83 1015.2
20260502115722 44 199 0.0 0.0 0.00 0.00 0.00 85 1015.2
20260502115219 44 201 0.0 0.0 0.00 0.00 0.00 82 1015.1
20260502114714 44 201 0.0 0.0 0.00 0.00 0.00 82 1015.2
20260502114212 43 203 0.0 0.0 0.00 0.00 0.00 82 1015.1
20260502113709 43 210 0.0 0.0 0.00 0.00 0.00 84 1015.0
20260502113207 42 215 0.0 0.0 0.00 0.00 0.00 86 1015.1
20260502112705 42 238 0.0 0.0 0.00 0.00 0.00 88 1014.8
20260502112202 42 209 0.0 0.0 0.00 0.00 0.00 88 1014.5
20260502111659 42 202 0.0 0.0 0.00 0.00 0.00 89 1014.5
20260502111157 43 197 0.0 0.0 0.00 0.00 0.00 88 1014.6
20260502110654 43 198 0.0 0.0 0.00 0.00 0.00 88 1014.6
20260502110151 42 198 0.0 0.0 0.00 0.00 0.00 85 1014.6
20260502105649 42 199 0.0 0.0 0.00 0.00 0.00 85 1014.5
20260502105146 42 203 0.0 0.0 0.00 0.00 0.00 86 1014.7
20260502104643 42 203 0.0 0.0 0.00 0.00 0.00 86 1014.7
20260502104140 42 213 0.0 0.0 0.00 0.00 0.00 86 1014.4
20260502103638 42 206 0.0 0.0 0.00 0.00 0.00 86 1014.4
20260502103136 43 194 0.0 0.0 0.00 0.00 0.00 87 1014.3
20260502102632 43 194 0.0 0.0 0.00 0.00 0.00 85 1014.6
20260502102129 43 197 0.0 0.0 0.00 0.00 0.00 84 1014.4
20260502101627 43 198 0.0 0.0 0.00 0.00 0.00 84 1014.4
20260502101125 43 203 0.0 0.0 0.00 0.00 0.00 84 1014.5
20260502100624 43 200 0.0 0.0 0.00 0.00 0.00 84 1014.4
20260502100121 43 192 0.0 0.0 0.00 0.00 0.00 84 1014.3
20260502091055 45 191 0.0 0.0 0.00 0.00 0.00 82 1014.7
20260502090552 45 190 0.0 0.0 0.00 0.00 0.00 83 1014.4
20260502071446 47 189 0.0 0.0 0.00 0.00 0.00 82 1014.9
20260502070944 47 190 0.0 0.0 0.00 0.00 0.00 81 1014.8
20260502070443 47 190 0.0 0.0 0.00 0.00 0.00 80 1015.1
20260502065941 47 192 0.0 0.0 0.00 0.00 0.00 81 1015.0
20260502065439 47 190 0.0 0.0 0.00 0.00 0.00 81 1014.9
20260502064936 47 189 0.0 0.0 0.00 0.00 0.00 79 1014.8
20260502064434 48 188 0.0 0.0 0.00 0.00 0.00 79 1014.9
20260502063931 47 188 0.0 0.0 0.00 0.00 0.00 76 1015.1
20260502063429 47 195 0.0 0.0 0.00 0.00 0.00 78 1015.0
20260502062926 47 195 0.0 0.0 0.00 0.00 0.00 78 1015.0
20260502062423 48 199 0.0 0.0 0.00 0.00 0.00 79 1015.3
20260502061922 48 208 0.0 0.0 0.00 0.00 0.00 76 1015.3
20260502061420 47 206 0.0 0.0 0.00 0.00 0.00 78 1015.4
20260502060915 47 192 0.0 0.0 0.00 0.00 0.00 81 1015.3
20260502060410 47 184 0.0 0.0 0.00 0.00 0.00 81 1015.3
20260502055908 47 188 0.0 0.0 0.00 0.00 0.00 81 1015.4
20260502055406 47 224 0.0 0.0 0.00 0.00 0.00 80 1015.0
20260502054900 47 195 0.0 0.0 0.00 0.00 0.00 79 1015.1
20260502054357 47 183 0.0 0.0 0.00 0.00 0.00 79 1015.0
20260502053854 48 185 0.0 0.0 0.00 0.00 0.00 79 1014.9
20260502053351 47 203 0.0 0.0 0.00 0.00 0.00 77 1014.8
20260502052849 47 205 0.0 0.0 0.00 0.00 0.00 80 1014.8
20260502052347 47 205 0.0 0.0 0.00 0.00 0.00 80 1014.8
20260502051844 47 208 0.0 0.0 0.00 0.00 0.00 80 1014.9
20260502051343 47 190 0.0 0.0 0.00 0.00 0.00 80 1014.8
20260502050839 48 192 0.0 0.0 0.00 0.00 0.00 79 1014.5
20260502050336 48 187 0.0 0.0 0.00 0.00 0.00 78 1014.6
20260502045833 48 188 0.0 0.0 0.00 0.00 0.00 79 1014.5
20260502045329 48 188 0.0 0.0 0.00 0.00 0.00 79 1014.7
20260502044827 48 191 0.0 0.0 0.00 0.00 0.00 78 1014.7
20260502044322 48 202 0.0 0.0 0.00 0.00 0.00 77 1014.7
20260502043820 48 188 0.0 0.0 0.00 0.00 0.00 77 1014.7
20260502043317 48 187 0.0 0.0 0.00 0.00 0.00 77 1015.0
20260502042817 48 187 0.0 0.0 0.00 0.00 0.00 77 1014.9
20260502042314 48 187 0.0 0.0 0.00 0.00 0.00 77 1015.1
20260502041812 48 187 0.0 0.0 0.00 0.00 0.00 75 1015.2
20260502041309 48 188 0.0 0.0 0.00 0.00 0.00 74 1015.3
20260502040806 49 174 0.0 0.0 0.00 0.00 0.00 74 1015.0
20260502040303 49 174 0.0 0.0 0.00 0.00 0.00 74 1015.0
20260502035759 49 174 0.0 0.0 0.00 0.00 0.00 76 1015.1
20260502035255 49 174 0.0 0.0 0.00 0.00 0.00 76 1015.2
20260502034753 49 174 0.0 0.0 0.00 0.00 0.00 74 1015.4
20260502034251 49 173 0.0 0.0 0.00 0.00 0.00 75 1015.5
20260502033749 49 173 0.0 0.0 0.00 0.00 0.00 74 1015.4
20260502033246 49 175 0.0 0.0 0.00 0.00 0.00 75 1015.6
20260502032743 50 176 0.0 0.0 0.00 0.00 0.00 73 1015.6
20260502032239 50 176 0.0 0.0 0.00 0.00 0.00 74 1015.6
20260502031737 50 176 0.0 0.0 0.00 0.00 0.00 73 1015.7
20260502031235 50 178 0.0 0.0 0.00 0.00 0.00 72 1015.7
20260502030733 51 185 0.0 0.0 0.00 0.00 0.00 71 1016.0
20260502030231 51 184 0.0 0.0 0.00 0.00 0.00 72 1015.9
20260502025728 51 181 0.0 0.0 0.00 0.00 0.00 71 1015.6
20260502025226 51 174 0.0 0.0 0.00 0.00 0.00 71 1015.6
20260502024723 51 174 0.0 0.0 0.00 0.00 0.00 72 1015.4
20260502024221 51 174 0.0 0.0 0.00 0.00 0.00 72 1015.6
20260502023719 52 174 0.0 0.0 0.00 0.00 0.00 71 1015.7
20260502023216 52 170 0.0 0.0 0.00 0.00 0.00 70 1015.5
20260502022714 52 182 0.0 0.0 0.00 0.00 0.00 69 1015.5
20260502022210 52 173 0.0 0.0 0.00 0.00 0.00 68 1015.5
20260502021707 52 178 0.0 0.0 0.00 0.00 0.00 67 1015.3
20260502021204 52 183 0.0 0.0 0.00 0.00 0.00 68 1015.5
20260502020701 52 179 0.0 0.0 0.00 0.00 0.00 68 1015.3
20260502020158 52 166 0.0 0.0 0.00 0.00 0.00 67 1015.3
20260502015656 53 168 0.0 0.0 0.00 0.00 0.00 68 1015.1
20260502015152 53 177 0.0 0.0 0.00 0.00 0.00 65 1015.2
20260502014650 53 169 0.0 0.0 0.00 0.00 0.00 66 1015.1
20260502014147 53 180 0.0 0.0 0.00 0.00 0.00 64 1015.1
20260502013643 53 179 0.0 0.0 0.00 0.00 0.00 64 1014.9
20260502013138 53 172 0.0 0.0 0.00 0.00 0.00 66 1014.7
20260502012636 53 173 0.0 0.0 0.00 0.00 0.00 63 1014.8
20260502012134 54 176 0.0 0.0 0.00 0.00 0.00 64 1015.0
20260502011630 54 176 0.0 0.0 0.00 0.00 0.00 61 1014.8
20260502011126 54 179 0.0 0.0 0.00 0.00 0.00 61 1014.7
20260502010624 54 183 0.0 0.0 0.00 0.00 0.00 60 1014.9
20260502010120 54 170 0.0 0.0 0.00 0.00 0.00 59 1014.5
20260502005618 55 175 0.0 0.0 0.00 0.00 0.00 59 1014.3
20260502005115 55 175 0.0 0.0 0.00 0.00 0.00 57 1014.2
20260502004611 55 214 0.0 0.0 0.00 0.00 0.00 56 1014.2
20260502004108 56 181 0.0 0.0 0.00 0.00 0.00 53 1014.2
20260502003606 56 191 0.0 0.0 0.00 0.00 0.00 51 1014.0
20260502003102 56 192 0.0 0.0 0.00 0.00 0.00 50 1014.1
20260502002558 57 182 0.0 0.0 0.00 0.00 0.00 51 1013.8
20260502002056 57 180 0.0 0.0 0.00 0.00 0.00 49 1013.7
20260502001554 57 212 1.0 1.0 0.00 0.00 0.00 49 1013.8
20260502001051 57 178 0.0 0.0 0.00 0.00 0.00 49 1013.5